TimeCST,TemperatureF,Dew PointF,Humidity,Sea Level PressureIn,VisibilityMPH,Wind Direction,Wind SpeedMPH,Gust SpeedMPH,PrecipitationIn,Events,Conditions,WindDirDegrees,DateUTC
12:15 AM,15.8,12.7,88,29.89,10.0,WSW,9.2,-,N/A,,Clear,250,2013-02-26 06:15:00
12:35 AM,16.2,13.1,88,29.88,10.0,WSW,9.2,-,N/A,,Clear,240,2013-02-26 06:35:00
12:55 AM,16.3,13.1,87,29.88,10.0,WSW,8.1,-,N/A,,Clear,240,2013-02-26 06:55:00
1:15 AM,15.8,12.7,88,29.86,10.0,WSW,10.4,-,N/A,,Clear,250,2013-02-26 07:15:00
1:35 AM,14.9,11.8,88,29.85,10.0,WSW,9.2,-,N/A,,Clear,240,2013-02-26 07:35:00
1:55 AM,15.6,12.0,86,29.86,10.0,SW,6.9,-,N/A,,Clear,220,2013-02-26 07:55:00
2:15 AM,14.9,11.3,86,29.87,10.0,SSW,5.8,-,N/A,,Clear,210,2013-02-26 08:15:00
2:35 AM,14.4,10.6,85,29.87,10.0,SW,5.8,-,N/A,,Clear,220,2013-02-26 08:35:00
2:55 AM,13.6,9.9,85,29.87,10.0,Calm,Calm,-,N/A,,Clear,0,2013-02-26 08:55:00
3:15 AM,13.6,10.0,86,29.86,10.0,WSW,5.8,-,N/A,,Clear,240,2013-02-26 09:15:00
3:35 AM,12.2,8.2,84,29.85,10.0,West,8.1,-,N/A,,Clear,260,2013-02-26 09:35:00
3:55 AM,11.8,8.6,87,29.84,10.0,WSW,9.2,-,N/A,,Clear,250,2013-02-26 09:55:00
4:15 AM,11.8,8.2,85,29.83,10.0,WSW,10.4,-,N/A,,Clear,240,2013-02-26 10:15:00
4:35 AM,11.5,7.5,84,29.82,10.0,WSW,8.1,-,N/A,,Clear,250,2013-02-26 10:35:00
4:55 AM,10.9,6.8,83,29.82,10.0,WSW,10.4,-,N/A,,Clear,240,2013-02-26 10:55:00
5:15 AM,11.1,7.3,85,29.82,10.0,SW,8.1,-,N/A,,Clear,220,2013-02-26 11:15:00
5:35 AM,11.5,7.2,83,29.82,10.0,WSW,9.2,-,N/A,,Clear,240,2013-02-26 11:35:00
5:55 AM,10.9,6.6,83,29.82,10.0,WSW,6.9,-,N/A,,Clear,240,2013-02-26 11:55:00
6:15 AM,9.7,5.5,83,29.82,10.0,SW,6.9,-,N/A,,Clear,230,2013-02-26 12:15:00
6:35 AM,10.2,5.7,82,29.82,10.0,SW,9.2,-,N/A,,Clear,230,2013-02-26 12:35:00
6:55 AM,10.2,5.7,82,29.82,10.0,WSW,9.2,-,N/A,,Clear,250,2013-02-26 12:55:00
7:15 AM,10.2,5.5,81,29.83,10.0,WSW,10.4,-,N/A,,Clear,240,2013-02-26 13:15:00
7:35 AM,10.2,5.4,81,29.82,10.0,WSW,8.1,-,N/A,,Clear,240,2013-02-26 13:35:00
7:55 AM,11.1,6.1,80,29.82,10.0,WSW,10.4,-,N/A,,Clear,250,2013-02-26 13:55:00
8:15 AM,12.0,7.5,82,29.82,10.0,WSW,9.2,-,N/A,,Clear,240,2013-02-26 14:15:00
8:35 AM,15.4,10.6,81,29.81,10.0,WSW,4.6,-,N/A,,Clear,240,2013-02-26 14:35:00
8:55 AM,16.5,10.9,79,29.81,10.0,WSW,8.1,-,N/A,,Clear,250,2013-02-26 14:55:00
9:15 AM,18.0,11.7,76,29.82,10.0,WSW,12.7,-,N/A,,Clear,250,2013-02-26 15:15:00
9:35 AM,19.2,12.7,76,29.82,10.0,WSW,4.6,-,N/A,,Clear,250,2013-02-26 15:35:00
9:55 AM,21.2,14.2,74,29.82,10.0,WSW,5.8,-,N/A,,Clear,240,2013-02-26 15:55:00
10:15 AM,23.7,15.8,72,29.81,10.0,West,6.9,-,N/A,,Clear,260,2013-02-26 16:15:00
10:35 AM,26.8,16.7,66,29.81,10.0,WSW,4.6,-,N/A,,Clear,240,2013-02-26 16:35:00
10:55 AM,28.9,16.7,60,29.81,10.0,West,6.9,-,N/A,,Clear,260,2013-02-26 16:55:00
11:15 AM,31.3,17.1,56,29.81,10.0,WNW,4.6,-,N/A,,Clear,290,2013-02-26 17:15:00
11:35 AM,35.8,18.7,50,29.81,10.0,NW,6.9,-,N/A,,Clear,320,2013-02-26 17:35:00
11:55 AM,37.4,19.4,48,29.81,10.0,NNW,13.8,-,N/A,,Clear,330,2013-02-26 17:55:00
12:15 PM,38.1,19.8,48,29.81,10.0,North,13.8,17.3,N/A,,Clear,350,2013-02-26 18:15:00
12:35 PM,36.9,19.4,49,29.81,10.0,NNW,10.4,-,N/A,,Clear,330,2013-02-26 18:35:00
12:55 PM,38.1,20.1,48,29.80,10.0,North,11.5,-,N/A,,Clear,350,2013-02-26 18:55:00
1:15 PM,38.5,19.0,46,29.79,10.0,North,11.5,-,N/A,,Clear,10,2013-02-26 19:15:00
1:35 PM,38.3,19.4,47,29.79,10.0,North,9.2,16.1,N/A,,Clear,360,2013-02-26 19:35:00
1:55 PM,38.3,19.6,47,29.78,10.0,North,11.5,-,N/A,,Clear,10,2013-02-26 19:55:00
2:15 PM,39.0,19.2,45,29.78,10.0,North,9.2,-,N/A,,Clear,350,2013-02-26 20:15:00
2:35 PM,37.6,18.1,45,29.78,10.0,North,9.2,-,N/A,,Clear,360,2013-02-26 20:35:00
2:55 PM,37.4,18.5,46,29.77,10.0,North,9.2,-,N/A,,Clear,350,2013-02-26 20:55:00
3:15 PM,37.4,19.0,48,29.78,10.0,NNW,8.1,-,N/A,,Clear,340,2013-02-26 21:15:00
3:35 PM,37.0,18.9,48,29.78,10.0,NNW,6.9,-,N/A,,Clear,330,2013-02-26 21:35:00
3:55 PM,37.6,19.4,48,29.79,10.0,North,8.1,-,N/A,,Clear,360,2013-02-26 21:55:00
4:15 PM,36.7,18.5,48,29.79,10.0,NNE,9.2,-,N/A,,Clear,20,2013-02-26 22:15:00
4:35 PM,35.6,19.0,51,29.80,10.0,NNE,9.2,-,N/A,,Clear,20,2013-02-26 22:35:00
4:55 PM,34.9,19.6,54,29.81,10.0,North,10.4,-,N/A,,Clear,10,2013-02-26 22:55:00
5:15 PM,34.2,20.5,57,29.82,10.0,North,8.1,-,N/A,,Clear,10,2013-02-26 23:15:00
5:35 PM,32.9,20.3,60,29.83,10.0,NNE,11.5,-,N/A,,Clear,20,2013-02-26 23:35:00
5:55 PM,32.0,20.5,63,29.85,10.0,NNE,8.1,-,N/A,,Clear,30,2013-02-26 23:55:00
6:15 PM,31.1,20.8,66,29.86,10.0,North,5.8,-,N/A,,Clear,10,2013-02-27 00:15:00
6:35 PM,29.1,21.2,72,29.87,10.0,North,5.8,-,N/A,,Clear,360,2013-02-27 00:35:00
6:55 PM,28.4,21.6,76,29.88,10.0,NNW,5.8,-,N/A,,Clear,340,2013-02-27 00:55:00
7:15 PM,27.3,21.2,78,29.89,10.0,NNW,4.6,-,N/A,,Clear,330,2013-02-27 01:15:00
7:35 PM,26.1,20.8,81,29.90,10.0,NNW,5.8,-,N/A,,Clear,330,2013-02-27 01:35:00
7:55 PM,25.9,20.3,79,29.91,10.0,NW,6.9,-,N/A,,Clear,320,2013-02-27 01:55:00
8:15 PM,25.2,19.9,81,29.91,10.0,NW,4.6,-,N/A,,Clear,310,2013-02-27 02:15:00
8:35 PM,24.6,20.3,84,29.92,10.0,NW,3.5,-,N/A,,Clear,310,2013-02-27 02:35:00
8:55 PM,23.5,19.9,86,29.92,10.0,West,5.8,-,N/A,,Clear,280,2013-02-27 02:55:00
9:15 PM,22.6,19.2,87,29.94,10.0,West,6.9,-,N/A,,Clear,270,2013-02-27 03:15:00
9:35 PM,23.9,19.9,85,29.94,10.0,WNW,6.9,-,N/A,,Clear,290,2013-02-27 03:35:00
9:55 PM,23.9,19.8,84,29.95,10.0,West,8.1,-,N/A,,Clear,280,2013-02-27 03:55:00
10:15 PM,25.7,19.6,78,29.95,10.0,WNW,6.9,-,N/A,,Clear,300,2013-02-27 04:15:00
10:35 PM,25.5,19.4,78,29.96,10.0,WNW,8.1,-,N/A,,Clear,300,2013-02-27 04:35:00
10:55 PM,27.1,19.9,74,29.96,10.0,NW,10.4,-,N/A,,Clear,310,2013-02-27 04:55:00
11:15 PM,28.0,19.6,71,29.97,10.0,NW,12.7,-,N/A,,Clear,320,2013-02-27 05:15:00
11:35 PM,28.2,18.5,67,29.97,10.0,NNW,12.7,-,N/A,,Clear,330,2013-02-27 05:35:00
11:55 PM,28.9,18.3,65,29.98,10.0,NNW,13.8,-,N/A,,Clear,330,2013-02-27 05:55:00